| time (UTC) | temp C | wind direction | speed KPH | gust KPH | rain 1hr cm | rain 24hr cm | rain mn cm | humidity % | barometer mb |
| 20260507074507 | 10 | 275 | 0.0 | 4.8 | 0.00 | 0.15 | 0.00 | 80 | 1016.1 |
| 20260507073004 | 10 | 259 | 1.6 | 4.8 | 0.00 | 0.18 | 0.00 | 83 | 1016.0 |
| 20260507071507 | 9 | 301 | 0.0 | 3.2 | 0.00 | 0.20 | 0.00 | 87 | 1016.0 |
| 20260507070018 | 9 | 268 | 1.6 | 4.8 | 0.00 | 0.23 | 0.00 | 89 | 1015.9 |
| 20260507064517 | 8 | 323 | 0.0 | 1.6 | 0.00 | 0.25 | 0.00 | 91 | 1015.8 |
| 20260507063026 | 8 | 274 | 0.0 | 3.2 | 0.00 | 0.28 | 0.00 | 92 | 1015.7 |
| 20260507061506 | 8 | 320 | 0.0 | 4.8 | 0.00 | 0.30 | 0.00 | 94 | 1015.5 |
| 20260507060009 | 8 | 270 | 0.0 | 3.2 | 0.00 | 0.36 | 0.00 | 95 | 1015.5 |
| 20260507054514 | 7 | 306 | 0.0 | 3.2 | 0.00 | 0.38 | 0.00 | 95 | 1015.3 |
| 20260507053019 | 7 | 316 | 0.0 | 3.2 | 0.00 | 0.41 | 0.00 | 95 | 1015.2 |
| 20260507051524 | 7 | 338 | 0.0 | 1.6 | 0.00 | 0.46 | 0.00 | 95 | 1015.1 |
| 20260507050022 | 7 | 340 | 0.0 | 3.2 | 0.00 | 0.51 | 0.00 | 95 | 1014.9 |
| 20260507044522 | 7 | 323 | 0.0 | 1.6 | 0.00 | 0.56 | 0.00 | 95 | 1014.7 |
| 20260507043012 | 7 | 311 | 0.0 | 3.2 | 0.00 | 0.61 | 0.00 | 95 | 1014.6 |
| 20260507041518 | 7 | 355 | 0.0 | 1.6 | 0.00 | 0.64 | 0.00 | 95 | 1014.5 |
| 20260507040021 | 7 | 67 | 0.0 | 0.0 | 0.00 | 0.66 | 0.00 | 95 | 1014.4 |
| 20260507034526 | 7 | 67 | 0.0 | 0.0 | 0.00 | 0.66 | 0.00 | 95 | 1014.5 |
| 20260507033017 | 7 | 67 | 0.0 | 0.0 | 0.00 | 0.69 | 0.00 | 94 | 1014.3 |
| 20260507031515 | 7 | 67 | 0.0 | 0.0 | 0.00 | 0.71 | 0.00 | 94 | 1014.3 |
| 20260507030020 | 7 | 67 | 0.0 | 0.0 | 0.00 | 0.74 | 0.00 | 94 | 1014.3 |
| 20260507024525 | 7 | 67 | 0.0 | 0.0 | 0.00 | 0.74 | 0.00 | 94 | 1014.2 |
| 20260507023029 | 7 | 67 | 0.0 | 0.0 | 0.00 | 0.74 | 0.00 | 94 | 1014.2 |
| 20260507021512 | 7 | 67 | 0.0 | 3.2 | 0.00 | 0.76 | 0.00 | 93 | 1014.1 |
| 20260507020018 | 7 | 292 | 0.0 | 3.2 | 0.00 | 0.76 | 0.00 | 94 | 1013.9 |
| 20260507014531 | 7 | 312 | 0.0 | 0.0 | 0.00 | 0.79 | 0.00 | 95 | 1013.8 |
| 20260507013026 | 7 | 312 | 0.0 | 0.0 | 0.00 | 0.84 | 0.00 | 95 | 1013.8 |
| 20260507011510 | 7 | 313 | 0.0 | 0.0 | 0.00 | 0.89 | 0.00 | 95 | 1013.8 |
| 20260507010010 | 7 | 313 | 0.0 | 0.0 | 0.00 | 0.91 | 0.00 | 94 | 1013.8 |
| 20260507004521 | 7 | 312 | 0.0 | 0.0 | 0.00 | 0.94 | 0.00 | 94 | 1013.7 |
| 20260507003003 | 7 | 313 | 0.0 | 0.0 | 0.00 | 0.97 | 0.00 | 94 | 1013.7 |
| 20260507001505 | 7 | 313 | 0.0 | 0.0 | 0.00 | 1.02 | 0.00 | 94 | 1013.5 |
| 20260507000010 | 7 | 313 | 0.0 | 0.0 | 0.00 | 1.02 | 0.00 | 94 | 1013.5 |
| 20260506234516 | 7 | 313 | 0.0 | 0.0 | 0.00 | 1.04 | 0.00 | 94 | 1013.4 |
| 20260506233020 | 7 | 312 | 0.0 | 0.0 | 0.00 | 1.07 | 0.00 | 93 | 1013.4 |
| 20260506231504 | 6 | 312 | 0.0 | 0.0 | 0.00 | 1.12 | 0.00 | 93 | 1013.4 |
| 20260506230003 | 6 | 313 | 0.0 | 0.0 | 0.00 | 1.12 | 0.00 | 93 | 1013.4 |
| 20260506224510 | 6 | 312 | 0.0 | 1.6 | 0.00 | 1.14 | 0.00 | 92 | 1013.3 |
| 20260506223016 | 6 | 313 | 0.0 | 0.0 | 0.00 | 1.17 | 0.00 | 91 | 1012.9 |
| 20260506221521 | 7 | 313 | 0.0 | 0.0 | 0.00 | 1.22 | 0.00 | 89 | 1012.7 |
| 20260506220026 | 7 | 313 | 0.0 | 0.0 | 0.00 | 1.22 | 0.00 | 89 | 1012.7 |
| 20260506214507 | 7 | 317 | 0.0 | 3.2 | 0.00 | 1.27 | 1.22 | 88 | 1012.7 |
| 20260506213011 | 7 | 288 | 0.0 | 3.2 | 0.00 | 1.30 | 1.22 | 87 | 1012.7 |
| 20260506211518 | 8 | 297 | 0.0 | 1.6 | 0.00 | 1.37 | 1.22 | 86 | 1012.5 |
| 20260506210022 | 8 | 295 | 0.0 | 3.2 | 0.00 | 1.40 | 1.22 | 85 | 1012.5 |
| 20260506204526 | 8 | 347 | 0.0 | 4.8 | 0.00 | 1.45 | 1.22 | 84 | 1012.3 |
| 20260506203008 | 8 | 338 | 0.0 | 4.8 | 0.00 | 1.50 | 1.22 | 84 | 1012.2 |
| 20260506201516 | 9 | 345 | 0.0 | 4.8 | 0.00 | 1.50 | 1.22 | 83 | 1012.1 |
| 20260506200019 | 9 | 298 | 0.0 | 4.8 | 0.00 | 1.52 | 1.22 | 83 | 1011.9 |
| 20260506194524 | 10 | 325 | 0.0 | 4.8 | 0.00 | 1.55 | 1.22 | 84 | 1011.8 |
| 20260506193025 | 10 | 14 | 0.0 | 3.2 | 0.00 | 1.57 | 1.22 | 88 | 1011.8 |
| 20260506191525 | 10 | 314 | 0.0 | 1.6 | 0.00 | 1.57 | 1.22 | 88 | 1011.5 |
| 20260506190014 | 10 | 308 | 0.0 | 4.8 | 0.00 | 1.60 | 1.22 | 87 | 1011.4 |
| 20260506184521 | 11 | 316 | 0.0 | 1.6 | 0.00 | 1.63 | 1.22 | 87 | 1011.2 |
| 20260506183022 | 11 | 316 | 0.0 | 1.6 | 0.00 | 1.65 | 1.22 | 86 | 1011.2 |
| 20260506181528 | 11 | 316 | 0.0 | 1.6 | 0.00 | 1.68 | 1.22 | 86 | 1010.9 |
| 20260506180038 | 11 | 323 | 0.0 | 4.8 | 0.00 | 1.68 | 1.22 | 85 | 1010.8 |
| 20260506174513 | 11 | 267 | 0.0 | 3.2 | 0.00 | 1.70 | 1.22 | 84 | 1010.5 |
| 20260506173020 | 11 | 286 | 0.0 | 4.8 | 0.00 | 1.70 | 1.22 | 83 | 1010.4 |
| 20260506171527 | 11 | 350 | 0.0 | 8.0 | 0.00 | 1.70 | 1.22 | 81 | 1010.2 |
| 20260506170027 | 11 | 286 | 1.6 | 6.4 | 0.00 | 1.70 | 1.22 | 82 | 1010.2 |
| 20260506164529 | 11 | 252 | 0.0 | 6.4 | 0.00 | 1.70 | 1.22 | 85 | 1010.1 |
| 20260506163052 | 11 | 317 | 0.0 | 3.2 | 0.00 | 1.70 | 1.22 | 86 | 1010.1 |
| 20260506161520 | 11 | 325 | 0.0 | 1.6 | 0.00 | 1.70 | 1.22 | 90 | 1010.1 |
| 20260506160010 | 11 | 347 | 0.0 | 1.6 | 0.00 | 1.70 | 1.22 | 89 | 1010.1 |
| 20260506154509 | 11 | 347 | 0.0 | 0.0 | 0.00 | 1.70 | 1.22 | 89 | 1010.1 |
| 20260506153010 | 11 | 347 | 0.0 | 1.6 | 0.00 | 1.70 | 1.22 | 87 | 1010.0 |
| 20260506151518 | 11 | 347 | 0.0 | 1.6 | 0.00 | 1.70 | 1.22 | 86 | 1010.1 |
| 20260506150026 | 11 | 347 | 0.0 | 1.6 | 0.00 | 1.70 | 1.22 | 87 | 1010.1 |
| 20260506144503 | 11 | 271 | 0.0 | 3.2 | 0.00 | 1.70 | 1.22 | 86 | 1010.0 |
| 20260506143008 | 11 | 303 | 0.0 | 3.2 | 0.00 | 1.70 | 1.22 | 86 | 1010.0 |
| 20260506141514 | 11 | 268 | 0.0 | 4.8 | 0.00 | 1.70 | 1.22 | 86 | 1010.0 |
| 20260506140018 | 11 | 266 | 0.0 | 4.8 | 0.00 | 1.70 | 1.22 | 89 | 1010.1 |
| 20260506134522 | 11 | 261 | 1.6 | 4.8 | 0.00 | 1.70 | 1.22 | 87 | 1010.0 |
| 20260506133028 | 11 | 316 | 0.0 | 4.8 | 0.00 | 1.70 | 1.22 | 87 | 1010.1 |
| 20260506131514 | 11 | 330 | 0.0 | 4.8 | 0.00 | 1.70 | 1.22 | 88 | 1010.0 |
| 20260506130014 | 11 | 5 | 0.0 | 6.4 | 0.00 | 1.70 | 1.22 | 87 | 1010.0 |
| 20260506124520 | 11 | 315 | 1.6 | 11.3 | 0.00 | 1.70 | 1.22 | 88 | 1009.9 |
| 20260506123026 | 11 | 292 | 1.6 | 9.7 | 0.00 | 1.70 | 1.22 | 88 | 1009.9 |
| 20260506121528 | 11 | 243 | 1.6 | 12.9 | 0.00 | 1.70 | 1.22 | 89 | 1009.8 |
| 20260506120010 | 11 | 323 | 3.2 | 9.7 | 0.00 | 1.70 | 1.22 | 92 | 1009.8 |
| 20260506114515 | 10 | 312 | 1.6 | 12.9 | 0.00 | 1.70 | 1.22 | 94 | 1009.7 |
| 20260506113019 | 10 | 36 | 1.6 | 6.4 | 0.00 | 1.70 | 1.22 | 96 | 1009.7 |
| 20260506111525 | 10 | 263 | 3.2 | 8.0 | 0.00 | 1.70 | 1.22 | 97 | 1009.7 |
| 20260506110030 | 10 | 348 | 1.6 | 6.4 | 0.00 | 1.70 | 1.22 | 97 | 1009.7 |
| 20260506104528 | 9 | 304 | 1.6 | 6.4 | 0.00 | 1.70 | 1.22 | 97 | 1009.9 |
| 20260506103018 | 8 | 317 | 1.6 | 6.4 | 0.00 | 1.70 | 1.22 | 97 | 1010.0 |
| 20260506101503 | 8 | 350 | 1.6 | 6.4 | 0.03 | 1.70 | 1.22 | 97 | 1009.8 |
| 20260506100004 | 8 | 324 | 0.0 | 8.0 | 0.05 | 1.70 | 1.22 | 97 | 1009.6 |
| 20260506094508 | 8 | 42 | 1.6 | 11.3 | 0.08 | 1.70 | 1.22 | 97 | 1009.5 |
| 20260506093004 | 8 | 309 | 1.6 | 8.0 | 0.08 | 1.68 | 1.22 | 97 | 1009.4 |
| 20260506091504 | 8 | 317 | 1.6 | 6.4 | 0.08 | 1.68 | 1.19 | 97 | 1009.3 |
| 20260506090004 | 8 | 33 | 0.0 | 6.4 | 0.08 | 1.65 | 1.17 | 97 | 1009.2 |
| 20260506084504 | 8 | 118 | 1.6 | 8.0 | 0.05 | 1.63 | 1.14 | 97 | 1009.1 |
| 20260506083009 | 8 | 340 | 0.0 | 4.8 | 0.05 | 1.57 | 1.12 | 97 | 1009.0 |
| 20260506081511 | 8 | 329 | 0.0 | 6.4 | 0.08 | 1.57 | 1.12 | 97 | 1008.9 |